TimeEDT,TemperatureF,Dew PointF,Humidity,Sea Level PressureIn,VisibilityMPH,Wind Direction,Wind SpeedMPH,Gust SpeedMPH,PrecipitationIn,Events,Conditions,WindDirDegrees,DateUTC
12:53 AM,63.0,60.1,90,29.91,6.0,ENE,4.6,-,N/A,,Clear,60,2013-07-01 04:53:00
1:53 AM,62.1,59.0,90,29.90,5.0,Calm,Calm,-,N/A,,Clear,0,2013-07-01 05:53:00
2:28 AM,62.1,59.0,90,29.94,5.0,Calm,Calm,-,N/A,,Partly Cloudy,0,2013-07-01 06:28:00
2:42 AM,62.1,60.1,93,29.94,5.0,ENE,4.6,-,N/A,,Mostly Cloudy,70,2013-07-01 06:42:00
2:53 AM,63.0,60.1,90,29.89,5.0,East,5.8,-,N/A,,Overcast,80,2013-07-01 06:53:00
3:53 AM,64.0,61.0,90,29.89,5.0,ENE,3.5,-,N/A,,Overcast,70,2013-07-01 07:53:00
4:49 AM,64.4,60.8,88,29.95,6.0,ENE,5.8,-,N/A,,Overcast,60,2013-07-01 08:49:00
4:53 AM,64.0,61.0,90,29.91,6.0,ENE,4.6,-,N/A,,Overcast,70,2013-07-01 08:53:00
5:53 AM,63.0,60.1,90,29.94,7.0,ENE,6.9,-,0.00,,Overcast,70,2013-07-01 09:53:00
6:36 AM,63.0,60.1,90,29.97,5.0,Variable,4.6,-,N/A,,Overcast,0,2013-07-01 10:36:00
6:53 AM,63.0,60.1,90,29.93,5.0,ENE,5.8,-,N/A,,Overcast,60,2013-07-01 10:53:00
7:16 AM,63.0,60.1,90,29.97,6.0,East,4.6,-,N/A,,Overcast,80,2013-07-01 11:16:00
7:53 AM,62.1,59.0,90,29.94,6.0,ENE,6.9,-,0.01,Rain,Light Rain,60,2013-07-01 11:53:00
8:53 AM,62.1,59.0,90,29.95,5.0,ENE,6.9,-,0.02,Rain,Light Rain,70,2013-07-01 12:53:00
9:07 AM,63.0,60.1,90,29.98,5.0,East,5.8,-,0.00,Rain,Light Rain,90,2013-07-01 13:07:00
9:21 AM,63.0,60.1,90,29.97,6.0,East,4.6,-,0.01,Rain,Light Rain,80,2013-07-01 13:21:00
9:53 AM,63.0,60.1,90,29.96,5.0,ENE,6.9,-,0.01,Rain,Light Rain,70,2013-07-01 13:53:00
10:53 AM,63.0,60.1,90,29.96,3.0,ENE,5.8,-,0.08,Rain,Rain,60,2013-07-01 14:53:00
11:53 AM,64.0,61.0,90,29.97,7.0,ENE,5.8,-,0.09,Rain,Light Rain,60,2013-07-01 15:53:00
12:01 PM,64.0,61.0,90,30.00,6.0,Variable,6.9,-,0.01,Rain,Light Rain,0,2013-07-01 16:01:00
12:20 PM,64.0,62.1,93,30.01,5.0,Variable,3.5,-,0.02,Rain,Light Rain,0,2013-07-01 16:20:00
12:53 PM,64.9,62.1,90,29.97,6.0,ENE,3.5,-,0.04,Rain,Light Rain,70,2013-07-01 16:53:00
1:32 PM,66.0,63.0,90,30.01,3.0,Variable,3.5,-,0.04,Rain,Rain,0,2013-07-01 17:32:00
1:53 PM,66.0,62.1,87,29.97,5.0,East,6.9,-,0.06,Rain,Light Rain,80,2013-07-01 17:53:00
2:53 PM,66.9,62.1,84,29.96,10.0,East,8.1,-,0.01,Rain,Light Rain,100,2013-07-01 18:53:00
3:07 PM,66.9,61.0,81,29.99,10.0,East,6.9,-,0.00,,Overcast,90,2013-07-01 19:07:00
3:31 PM,66.9,62.1,84,29.99,10.0,ESE,6.9,-,0.00,,Overcast,120,2013-07-01 19:31:00
3:53 PM,66.9,61.0,81,29.96,10.0,ENE,4.6,-,0.00,,Overcast,70,2013-07-01 19:53:00
4:32 PM,66.9,60.1,79,29.99,10.0,East,6.9,-,N/A,,Overcast,80,2013-07-01 20:32:00
4:53 PM,66.9,60.1,79,29.96,10.0,East,9.2,-,N/A,,Overcast,80,2013-07-01 20:53:00
5:53 PM,68.0,61.0,78,29.96,10.0,East,10.4,-,N/A,,Overcast,80,2013-07-01 21:53:00
6:00 PM,68.0,61.0,78,30.00,10.0,NE,8.1,-,N/A,,Overcast,50,2013-07-01 22:00:00
6:53 PM,64.9,61.0,87,29.98,10.0,ENE,6.9,-,N/A,,Overcast,60,2013-07-01 22:53:00
7:01 PM,64.9,61.0,87,30.01,10.0,NE,6.9,-,N/A,,Overcast,50,2013-07-01 23:01:00
7:10 PM,64.9,61.0,87,30.01,10.0,Variable,5.8,-,N/A,,Overcast,0,2013-07-01 23:10:00
7:53 PM,64.0,60.1,87,30.01,8.0,NNE,9.2,-,N/A,,Overcast,30,2013-07-01 23:53:00
8:53 PM,63.0,59.0,87,30.02,10.0,NNE,8.1,-,N/A,,Overcast,20,2013-07-02 00:53:00
9:33 PM,62.1,59.0,90,30.05,9.0,NE,8.1,-,N/A,,Overcast,40,2013-07-02 01:33:00
9:53 PM,62.1,59.0,90,30.02,7.0,NNE,4.6,-,N/A,,Overcast,30,2013-07-02 01:53:00
10:53 PM,62.1,59.0,90,30.03,4.0,NE,5.8,-,N/A,,Overcast,50,2013-07-02 02:53:00
11:53 PM,62.1,59.0,90,30.02,5.0,ENE,4.6,-,N/A,,Overcast,60,2013-07-02 03:53:00